Starlink 3517

operational
NORAD ID: 51735 Int'l Des: 2022-016 Owner: SPXS Country: US Constellation: starlink
LEOCIRCULAR

Starlink 3517について

説明を読み込み中...

リアルタイム位置

3D地球を読み込み中...

次回通過

高度履歴

Altitude vs Time

uPlot chart will show altitude changes over time

軌道要素

1 51735U 22016X 25305.35247626 .00000226 00000-0 32321-4 0 9997
2 51735 53.2173 175.2498 0001537 95.0053 265.1115 15.08833386204190
Epoch: Nov 1, 2025 • Age: 51 hours

現在のステータス

高度 544.9 km
速度 7.60 km/s
衛星直下点 51.39°N, 16.24°E
打ち上げ日 Feb 21, 2022
運用期間 3.6 years
タイプ internet

技術仕様

分類 Payload
質量 297.00 kg
乾燥質量 275.00 kg
総質量 297.00 kg
長さ 0.20 m
直径 2.80 m
スパン 9.00 m
形状 Box + pan
製造者 SPXS
バスタイプ Starlink
フェーズステータス In Orbit
所有者/国 SPXS/US

大規模コンステレーション

Loading constellations...